period_start,C,m1,H,J0,J1,J2,J3,J4,J5,JA,JB,JC,JD,JJ,JK,JN,#
2018-02-12 00:00:56,0.05,1.65,0.00,21.62,24.91,28.16,14.08,48.42,1018.57,2036.11,2816.36,2666.32,3036.41,599.83,599.82,13.78,0000 0000 0000 0000 000000
2018-02-12 00:05:57,0.06,1.65,0.00,21.65,24.92,28.17,14.02,48.52,1018.57,2036.22,2815.25,2665.66,3035.62,599.90,599.91,13.83,0000 0000 0000 0000 000000
2018-02-12 00:10:58,0.04,1.65,0.00,21.65,24.93,28.18,14.02,48.49,1018.57,2036.11,2814.40,2664.96,3034.72,600.13,600.02,13.88,0000 0000 0000 0000 000000
2018-02-12 00:16:00,0.05,1.66,0.00,21.67,24.95,28.19,13.97,48.25,1018.53,2036.02,2813.66,2664.12,3033.68,599.82,599.65,13.93,0000 0000 0000 0000 000000
2018-02-12 00:21:01,0.05,1.66,0.00,21.66,24.96,28.21,14.00,48.32,1018.52,2036.00,2812.68,2663.41,3032.89,599.68,599.62,13.98,0000 0000 0000 0000 000000
2018-02-12 00:26:02,0.05,1.66,0.00,21.67,24.97,28.22,14.05,48.40,1018.53,2036.00,2811.60,2662.76,3032.05,599.97,599.94,14.03,0000 0000 0000 0000 000000
2018-02-12 00:31:04,0.06,1.67,0.00,21.67,24.97,28.24,14.04,48.40,1018.43,2036.00,2810.49,2661.90,3031.15,599.86,599.85,14.08,0000 0000 0000 0000 000000
2018-02-12 00:36:05,0.06,1.67,0.00,21.68,24.99,28.24,13.97,48.35,1018.25,2036.00,2809.49,2661.08,3030.20,599.66,599.38,14.13,0000 0000 0000 0000 000000
2018-02-12 00:41:06,0.06,1.67,0.00,21.69,25.00,28.26,14.04,48.22,1018.20,2036.00,2808.45,2660.33,3029.37,600.00,599.69,14.18,0000 0000 0000 0000 000000
2018-02-12 00:46:08,0.05,1.68,0.00,21.71,25.01,28.27,14.03,48.27,1018.23,2036.00,2807.58,2659.73,3028.51,599.71,599.28,14.23,0000 0000 0000 0000 000000
2018-02-12 00:51:09,0.05,1.68,0.00,21.71,25.02,28.27,14.08,48.38,1018.16,2035.99,2806.50,2658.94,3027.55,599.69,599.37,14.28,0000 0000 0000 0000 000000
2018-02-12 00:56:10,0.06,1.68,0.00,21.74,25.04,28.30,14.07,48.36,1018.20,2035.98,2805.44,2658.08,3026.62,599.83,599.34,14.33,0000 0000 0000 0000 000000
2018-02-12 01:01:11,0.06,1.69,0.00,21.75,25.05,28.32,13.95,48.33,1018.13,2035.98,2804.27,2657.28,3025.73,599.50,599.07,14.38,0000 0000 0000 0000 000000
2018-02-12 01:06:13,0.06,1.69,0.00,21.75,25.06,28.32,14.09,48.30,1018.09,2035.96,2803.20,2656.53,3024.74,599.97,599.46,14.43,0000 0000 0000 0000 000000
2018-02-12 01:11:14,0.06,1.69,0.00,21.76,25.07,28.33,14.01,48.36,1018.11,2035.93,2801.93,2655.69,3023.73,599.67,599.18,14.48,0000 0000 0000 0000 000000
2018-02-12 01:16:15,0.05,1.70,0.00,21.78,25.09,28.34,14.03,48.17,1018.10,2035.90,2800.82,2654.90,3022.85,600.34,599.48,14.53,0000 0000 0000 0000 000000
2018-02-12 01:21:17,0.05,1.70,0.00,21.80,25.10,28.35,14.06,48.31,1018.08,2035.70,2799.74,2653.99,3021.84,600.13,599.44,14.58,0000 0000 0000 0000 000000
2018-02-12 01:26:18,0.06,1.70,0.00,21.81,25.12,28.38,14.07,48.34,1018.08,2035.56,2798.49,2653.11,3020.88,599.76,599.03,14.63,0000 0000 0000 0000 000000
2018-02-12 01:31:20,0.03,1.70,0.00,21.83,25.13,28.38,14.05,48.42,1018.08,2035.32,2797.23,2652.26,3019.87,599.92,599.23,14.68,0000 0000 0000 0000 000000
2018-02-12 01:36:21,0.06,1.71,0.00,21.85,25.15,28.40,14.08,48.38,1018.08,2035.13,2796.06,2651.41,3018.73,600.13,599.20,14.74,0000 0000 0000 0000 000000
2018-02-12 01:41:23,0.06,1.71,0.00,21.84,25.16,28.40,14.03,48.26,1018.08,2035.07,2794.97,2650.56,3017.73,600.49,599.72,14.79,0000 0000 0000 0000 000000
2018-02-12 01:46:24,0.06,1.71,0.00,21.85,25.17,28.42,14.04,48.48,1018.07,2035.01,2793.77,2649.72,3016.68,599.59,598.79,14.84,0000 0000 0000 0000 000000
2018-02-12 01:51:25,0.06,1.72,0.00,21.89,25.20,28.42,13.95,48.34,1017.99,2035.00,2792.54,2648.89,3015.69,599.74,598.88,14.89,0000 0000 0000 0000 000000
2018-02-12 01:56:27,0.07,1.72,0.00,21.91,25.21,28.46,14.06,48.43,1017.71,2035.00,2791.28,2647.97,3014.63,600.26,599.25,14.94,0000 0000 0000 0000 000000
2018-02-12 02:01:28,0.06,1.72,0.00,21.91,25.22,28.45,14.04,48.44,1017.62,2035.00,2790.03,2647.06,3013.56,600.00,598.86,14.99,0000 0000 0000 0000 000000
2018-02-12 02:06:29,0.08,1.73,0.00,21.91,25.24,28.47,14.03,48.49,1017.60,2035.00,2788.80,2646.13,3012.54,600.18,598.98,15.04,0000 0000 0000 0000 000000
2018-02-12 02:11:31,0.07,1.73,0.00,21.93,25.26,28.50,13.98,48.38,1017.59,2035.00,2787.59,2645.19,3011.43,599.82,598.63,15.09,0000 0000 0000 0000 000000
2018-02-12 02:16:32,0.07,1.74,0.00,21.94,25.27,28.50,14.03,48.44,1017.59,2034.99,2786.25,2644.25,3010.31,599.64,598.48,15.14,0000 0000 0000 0000 000000
2018-02-12 02:21:33,0.07,1.74,0.00,21.95,25.30,28.51,13.99,48.45,1017.59,2034.98,2784.96,2643.28,3009.12,600.00,598.67,15.19,0000 0000 0000 0000 000000
2018-02-12 02:26:34,0.08,1.74,0.00,21.99,25.31,28.53,13.99,48.50,1017.59,2034.98,2783.62,2642.35,3008.06,599.78,598.30,15.24,0000 0000 0000 0000 000000
2018-02-12 02:31:36,0.07,1.75,0.00,22.01,25.32,28.54,14.02,48.53,1017.58,2034.95,2782.17,2641.39,3007.05,599.85,598.40,15.29,0000 0000 0000 0000 000000
2018-02-12 02:36:37,0.07,1.75,0.00,22.02,25.35,28.56,14.03,48.50,1017.53,2034.97,2781.00,2640.55,3006.01,600.04,598.51,15.34,0000 0000 0000 0000 000000
2018-02-12 02:41:39,0.08,1.75,0.00,22.04,25.36,28.56,14.00,48.53,1017.51,2034.95,2779.71,2639.67,3004.86,599.75,598.28,15.39,0000 0000 0000 0000 000000
2018-02-12 02:46:40,0.07,1.76,0.00,22.06,25.38,28.58,14.01,48.59,1017.54,2034.87,2778.34,2638.68,3003.73,599.67,598.20,15.44,0000 0000 0000 0000 000000
2018-02-12 02:51:41,0.07,1.76,0.00,22.07,25.40,28.62,13.96,48.62,1017.58,2034.73,2776.83,2637.71,3002.59,599.47,598.01,15.49,0000 0000 0000 0000 000000
2018-02-12 02:56:43,0.03,1.76,0.00,22.10,25.42,28.61,13.99,48.62,1017.54,2034.36,2775.49,2636.62,3001.37,599.51,598.00,15.54,0000 0000 0000 0000 000000
2018-02-12 03:01:44,0.06,1.77,0.00,22.12,25.44,28.64,14.00,48.70,1017.50,2034.07,2774.12,2635.67,3000.13,599.94,598.28,15.59,0000 0000 0000 0000 000000
2018-02-12 03:06:45,0.08,1.77,0.00,22.12,25.46,28.66,13.98,48.69,1017.20,2034.02,2772.78,2634.65,2998.87,599.59,597.81,15.64,0000 0000 0000 0000 000000
2018-02-12 03:11:47,0.08,1.77,0.00,22.15,25.47,28.66,14.00,48.73,1017.14,2034.00,2771.45,2633.68,2997.66,599.60,597.77,15.69,0000 0000 0000 0000 000000
2018-02-12 03:16:48,0.08,1.78,0.00,22.18,25.50,28.67,13.96,48.75,1017.11,2034.00,2770.03,2632.71,2996.52,599.92,597.94,15.74,0000 0000 0000 0000 000000
2018-02-12 03:21:50,0.07,1.78,0.00,22.21,25.51,28.67,14.00,48.69,1017.11,2034.00,2768.72,2631.76,2995.37,600.30,598.17,15.79,0000 0000 0000 0000 000000
2018-02-12 03:26:51,0.07,1.79,0.00,22.23,25.52,28.70,13.99,48.52,1017.11,2034.00,2767.48,2630.82,2994.17,599.70,597.52,15.84,0000 0000 0000 0000 000000
2018-02-12 03:31:53,0.08,1.79,0.00,22.25,25.55,28.72,13.96,48.40,1017.11,2033.99,2766.12,2629.80,2992.95,600.41,598.19,15.89,0000 0000 0000 0000 000000
2018-02-12 03:36:54,0.08,1.79,0.00,22.26,25.56,28.73,13.98,48.48,1017.11,2033.98,2764.67,2628.82,2991.76,599.61,597.39,15.94,0000 0000 0000 0000 000000
2018-02-12 03:41:56,0.07,1.80,0.00,22.28,25.58,28.77,13.99,48.44,1017.11,2033.95,2763.28,2627.82,2990.55,600.12,597.85,15.99,0000 0000 0000 0000 000000
2018-02-12 03:46:57,0.08,1.80,0.00,22.31,25.60,28.77,14.00,48.44,1017.11,2033.94,2761.79,2626.83,2989.37,600.16,597.81,16.04,0000 0000 0000 0000 000000
2018-02-12 03:51:58,0.05,1.81,0.00,22.34,25.61,28.78,13.99,48.52,1017.11,2033.78,2760.40,2625.81,2988.10,600.08,597.78,16.09,0000 0000 0000 0000 000000
2018-02-12 03:56:59,0.04,1.81,0.00,22.37,25.62,28.81,14.10,48.55,1017.11,2033.23,2758.96,2624.77,2986.84,600.75,598.37,16.14,0000 0000 0000 0000 000000
2018-02-12 04:02:01,0.05,1.81,0.00,22.41,25.65,28.83,14.03,48.58,1017.11,2033.14,2757.78,2623.94,2985.84,600.65,598.22,16.19,0000 0000 0000 0000 000000
2018-02-12 04:07:02,0.07,1.82,0.00,22.42,25.66,28.85,13.98,48.67,1017.09,2033.08,2756.51,2623.08,2984.84,599.62,597.27,16.24,0000 0000 0000 0000 000000
2018-02-12 04:12:03,0.07,1.82,0.00,22.44,25.67,28.87,13.95,48.52,1017.07,2033.07,2755.51,2622.48,2983.81,600.00,597.44,16.29,0000 0000 0000 0000 000000
2018-02-12 04:17:04,0.06,1.82,0.00,22.45,25.69,28.89,13.97,48.34,1017.06,2033.01,2754.44,2621.62,2982.74,599.77,597.12,16.34,0000 0000 0000 0000 000000
2018-02-12 04:22:06,0.08,1.83,0.00,22.46,25.71,28.90,13.90,48.30,1017.07,2033.00,2753.11,2620.67,2981.63,599.40,596.87,16.39,0000 0000 0000 0000 000000
2018-02-12 04:27:07,0.07,1.83,0.00,22.49,25.72,28.92,13.98,48.47,1017.04,2033.00,2751.85,2619.78,2980.52,599.56,596.90,16.44,0000 0000 0000 0000 000000
2018-02-12 04:32:08,0.06,1.83,0.00,22.49,25.74,28.95,13.99,48.39,1016.96,2032.99,2750.84,2618.92,2979.43,599.96,597.22,16.49,0000 0000 0000 0000 000000
2018-02-12 04:37:09,0.07,1.84,0.00,22.52,25.76,28.95,13.99,48.42,1017.05,2032.98,2749.72,2618.05,2978.37,599.86,597.04,16.54,0000 0000 0000 0000 000000
2018-02-12 04:42:10,0.07,1.84,0.00,22.54,25.77,28.98,13.93,48.36,1017.07,2032.97,2748.59,2617.15,2977.31,599.55,596.82,16.59,0000 0000 0000 0000 000000
2018-02-12 04:47:12,0.05,1.84,0.00,22.57,25.80,29.00,13.95,48.39,1017.07,2032.81,2747.21,2616.26,2976.31,599.98,597.08,16.64,0000 0000 0000 0000 000000
2018-02-12 04:52:13,0.09,1.85,0.00,22.59,25.82,29.01,13.97,48.38,1017.09,2032.77,2745.84,2615.28,2975.24,600.13,597.26,16.69,0000 0000 0000 0000 000000
2018-02-12 04:57:14,0.06,1.85,0.00,22.61,25.83,29.04,13.98,48.28,1017.09,2032.69,2744.62,2614.38,2974.07,599.80,596.91,16.74,0000 0000 0000 0000 000000
2018-02-12 05:02:15,0.03,1.85,0.00,22.62,25.85,29.07,13.97,48.28,1017.10,2032.26,2743.19,2613.39,2972.91,600.16,597.24,16.79,0000 0000 0000 0000 000000
2018-02-12 05:07:17,0.07,1.86,0.00,22.64,25.87,29.08,13.97,48.36,1017.10,2032.10,2741.82,2612.45,2971.78,599.78,596.88,16.84,0000 0000 0000 0000 000000
2018-02-12 05:12:18,0.07,1.86,0.00,22.65,25.89,29.10,13.98,48.42,1017.10,2032.04,2740.52,2611.47,2970.71,599.92,596.95,16.89,0000 0000 0000 0000 000000
2018-02-12 05:17:19,0.08,1.86,0.00,22.64,25.91,29.13,14.01,48.43,1017.10,2032.01,2739.14,2610.51,2969.56,600.12,597.08,16.94,0000 0000 0000 0000 000000
2018-02-12 05:22:20,0.08,1.87,0.00,22.66,25.93,29.14,14.01,48.50,1017.10,2032.00,2737.78,2609.54,2968.40,600.25,597.16,16.99,0000 0000 0000 0000 000000
2018-02-12 05:27:22,0.08,1.87,0.00,22.71,25.95,29.15,14.02,48.48,1017.10,2032.00,2736.51,2608.55,2967.26,599.89,596.67,17.04,0000 0000 0000 0000 000000
2018-02-12 05:32:24,0.08,1.88,0.00,22.75,25.97,29.19,13.97,48.54,1017.10,2032.00,2735.07,2607.56,2965.98,600.06,596.78,17.09,0000 0000 0000 0000 000000
2018-02-12 05:37:25,0.09,1.88,0.00,22.81,25.99,29.19,13.96,48.50,1017.10,2032.00,2733.64,2606.53,2964.83,599.94,596.59,17.14,0000 0000 0000 0000 000000
2018-02-12 05:42:26,0.08,1.89,0.00,22.86,26.01,29.20,14.04,48.66,1017.10,2031.99,2732.29,2605.53,2963.62,600.13,596.81,17.20,0000 0000 0000 0000 000000
2018-02-12 05:47:28,0.09,1.89,0.00,22.85,26.02,29.23,13.96,48.63,1017.10,2031.99,2730.80,2604.51,2962.41,599.68,596.33,17.25,0000 0000 0000 0000 000000
2018-02-12 05:52:29,0.07,1.89,0.00,22.91,26.05,29.24,13.99,48.48,1017.10,2031.99,2729.63,2603.59,2961.21,600.62,597.02,17.30,0000 0000 0000 0000 000000
2018-02-12 05:57:30,0.08,1.90,0.00,22.97,26.06,29.25,13.96,48.54,1017.09,2031.95,2728.23,2602.55,2960.00,599.56,596.01,17.35,0000 0000 0000 0000 000000
2018-02-12 06:02:31,0.07,1.90,0.00,23.01,26.08,29.29,13.93,48.48,1017.10,2031.81,2726.87,2601.55,2958.72,600.24,596.56,17.40,0000 0000 0000 0000 000000
2018-02-12 06:07:32,0.04,1.90,0.00,23.04,26.10,29.30,13.95,48.47,1017.10,2031.29,2725.50,2600.54,2957.49,599.87,596.20,17.45,0000 0000 0000 0000 000000
2018-02-12 06:12:34,0.07,1.91,0.00,23.05,26.12,29.33,13.96,48.51,1017.10,2031.12,2723.86,2599.47,2956.27,599.93,596.15,17.50,0000 0000 0000 0000 000000
2018-02-12 06:17:35,0.07,1.91,0.00,23.04,26.14,29.35,13.93,48.53,1017.10,2031.04,2722.43,2598.42,2954.99,599.68,595.91,17.55,0000 0000 0000 0000 000000
2018-02-12 06:22:36,0.09,1.92,0.00,23.09,26.16,29.37,13.96,48.48,1017.10,2031.02,2720.98,2597.35,2953.73,600.00,596.11,17.60,0000 0000 0000 0000 000000
2018-02-12 06:27:38,0.09,1.92,0.00,22.89,26.17,29.39,13.99,48.62,1017.10,2031.01,2719.64,2596.42,2952.59,599.98,596.52,17.65,0000 0000 0000 0000 000000
2018-02-12 06:32:39,0.08,1.93,0.00,22.71,26.19,29.39,14.01,48.58,1017.10,2031.00,2718.08,2595.33,2951.36,600.02,596.98,17.70,0000 0000 0000 0000 000000
2018-02-12 06:37:40,0.09,1.93,0.00,22.60,26.20,29.44,13.98,48.55,1017.10,2031.00,2716.68,2594.36,2949.97,600.00,597.02,17.75,0000 0000 0000 0000 000000
2018-02-12 06:42:41,0.09,1.93,0.00,22.47,26.20,29.37,14.06,48.63,1017.10,2031.00,2715.00,2593.17,2948.62,600.06,597.51,17.80,0000 0000 0000 0000 000000
2018-02-12 06:47:43,0.09,1.94,0.00,22.46,26.20,29.40,13.98,48.77,1017.10,2031.00,2713.39,2592.03,2947.32,600.02,597.43,17.85,0000 0000 0000 0000 000000
2018-02-12 06:52:44,0.09,1.94,0.00,22.57,26.20,29.62,14.00,48.85,1017.06,2031.00,2711.75,2590.96,2946.00,600.00,597.10,17.90,0000 0000 0000 0000 000000
2018-02-12 06:57:45,0.09,1.95,0.00,22.61,26.17,29.63,14.05,48.77,1017.02,2031.00,2710.31,2589.95,2944.68,600.12,597.19,17.95,0000 0000 0000 0000 000000
2018-02-12 07:02:47,0.11,1.95,0.00,22.61,26.16,29.54,14.00,48.73,1017.00,2031.00,2708.61,2588.74,2943.43,599.77,596.88,18.00,0000 0000 0000 0000 000000
2018-02-12 07:07:48,0.10,1.96,0.00,22.62,26.15,29.49,14.03,48.69,1017.01,2030.99,2706.78,2587.57,2941.89,600.15,597.15,18.05,0000 0000 0000 0000 000000
2018-02-12 07:12:50,0.10,1.96,0.00,22.62,26.12,29.44,13.97,48.69,1016.92,2030.99,2704.92,2586.39,2940.49,599.88,596.80,18.10,0000 0000 0000 0000 000000
2018-02-12 07:17:51,0.11,1.97,0.00,22.63,26.11,29.46,13.97,48.73,1016.85,2030.99,2702.95,2584.99,2938.84,599.96,596.94,18.15,0000 0000 0000 0000 000000
2018-02-12 07:22:52,0.13,1.98,0.00,22.63,26.09,29.48,14.03,48.81,1016.74,2031.02,2700.98,2583.66,2937.27,599.96,596.79,18.20,0000 0000 0000 0000 000000
2018-02-12 07:27:54,0.13,1.98,0.00,22.63,26.07,29.42,14.01,48.73,1016.80,2031.04,2698.72,2582.11,2935.43,600.03,596.92,18.25,0000 0000 0000 0000 000000
2018-02-12 07:32:55,0.18,1.99,0.00,22.62,26.06,29.24,13.98,48.66,1016.78,2031.07,2695.97,2580.22,2933.12,599.86,596.79,18.30,0000 0000 0000 0000 000000
2018-02-12 07:37:56,0.25,2.00,0.00,22.64,26.05,29.16,13.97,48.61,1016.70,2031.13,2692.19,2577.57,2930.06,599.91,596.73,18.35,0000 0000 0000 0000 000000
2018-02-12 07:42:58,0.17,2.02,0.00,22.65,26.04,29.12,14.00,48.59,1016.68,2031.14,2688.88,2575.28,2927.40,599.91,596.69,18.40,0000 0000 0000 0000 000000
2018-02-12 07:47:59,0.14,2.02,0.00,22.65,26.02,29.12,13.96,48.67,1016.70,2031.19,2686.59,2573.65,2925.42,599.88,596.66,18.45,0000 0000 0000 0000 000000
2018-02-12 07:53:00,0.16,2.03,0.00,22.68,26.02,29.12,13.97,48.67,1016.72,2031.33,2684.36,2572.12,2923.62,600.18,596.99,18.50,0000 0000 0000 0000 000000
2018-02-12 07:58:01,0.15,2.04,0.00,22.71,26.02,29.11,13.97,48.67,1016.77,2031.47,2682.07,2570.58,2921.76,600.16,596.59,18.55,0000 0000 0000 0000 000000
2018-02-12 08:03:02,0.15,2.05,0.00,22.69,26.02,29.12,13.99,48.77,1016.69,2031.73,2679.77,2569.04,2919.92,600.18,596.91,18.60,0000 0000 0000 0000 000000
2018-02-12 08:08:04,0.18,2.06,0.00,22.69,26.01,29.13,13.96,48.94,1016.67,2031.81,2677.12,2567.25,2917.83,600.13,596.82,18.65,0000 0000 0000 0000 000000
2018-02-12 08:13:05,0.16,2.06,0.00,22.71,26.01,29.14,13.96,49.02,1016.69,2031.86,2674.51,2565.45,2915.61,599.97,596.71,18.70,0000 0000 0000 0000 000000
2018-02-12 08:18:07,0.14,2.07,0.00,22.72,26.02,29.13,13.87,48.78,1016.65,2031.77,2672.07,2563.63,2913.39,599.60,596.16,18.75,0000 0000 0000 0000 000000
2018-02-12 08:23:08,0.15,2.08,0.00,22.72,26.02,29.18,13.98,48.73,1016.70,2031.59,2669.47,2561.84,2911.26,600.08,596.73,18.80,0000 0000 0000 0000 000000
2018-02-12 08:28:09,0.13,2.09,0.00,22.72,26.02,29.17,13.99,48.72,1016.68,2031.46,2667.01,2560.08,2909.03,600.12,596.77,18.85,0000 0000 0000 0000 000000
2018-02-12 08:33:11,0.13,2.09,0.00,22.75,26.02,29.19,14.01,48.79,1016.65,2031.29,2664.62,2558.61,2907.01,600.18,596.76,18.90,0000 0000 0000 0000 000000
2018-02-12 08:38:12,0.15,2.10,0.00,22.76,26.03,29.21,13.99,48.76,1016.67,2031.26,2662.22,2556.94,2904.92,599.79,596.34,18.95,0000 0000 0000 0000 000000
2018-02-12 08:43:14,0.15,2.11,0.00,22.79,26.05,29.21,13.92,48.73,1016.75,2031.10,2659.47,2555.11,2902.74,599.91,596.41,19.00,0000 0000 0000 0000 000000
2018-02-12 08:48:15,0.17,2.12,0.00,22.79,26.05,29.24,14.01,48.87,1016.76,2031.06,2656.61,2553.08,2900.37,600.20,596.77,19.05,0000 0000 0000 0000 000000
2018-02-12 08:53:17,0.17,2.12,0.00,22.77,26.06,29.27,13.92,48.83,1016.75,2031.08,2653.92,2551.20,2898.04,599.81,596.35,19.10,0000 0000 0000 0000 000000
2018-02-12 08:58:18,0.17,2.13,0.00,22.81,26.07,29.29,13.91,48.81,1016.83,2031.03,2651.13,2549.21,2895.71,599.98,596.52,19.15,0000 0000 0000 0000 000000
2018-02-12 09:03:19,0.17,2.14,0.00,22.84,26.08,29.32,13.95,48.77,1016.78,2031.01,2648.38,2547.26,2893.35,599.85,596.31,19.20,0000 0000 0000 0000 000000
2018-02-12 09:08:20,0.17,2.15,0.00,22.83,26.10,29.30,13.92,48.88,1016.78,2031.00,2645.61,2545.28,2891.01,599.95,596.42,19.25,0000 0000 0000 0000 000000
2018-02-12 09:13:21,0.19,2.16,0.00,22.83,26.11,29.34,14.02,48.88,1016.78,2031.01,2642.64,2543.27,2888.56,600.24,596.65,19.30,0000 0000 0000 0000 000000
2018-02-12 09:18:22,0.19,2.17,0.00,22.84,26.12,29.36,13.98,48.92,1016.76,2031.00,2639.63,2541.11,2886.05,599.82,596.28,19.35,0000 0000 0000 0000 000000
2018-02-12 09:23:24,0.20,2.18,0.00,22.86,26.14,29.36,14.01,48.89,1016.74,2031.00,2636.54,2538.85,2883.37,600.23,596.68,19.40,0000 0000 0000 0000 000000
2018-02-12 09:28:25,0.18,2.19,0.00,22.85,26.15,29.38,13.96,48.89,1016.69,2031.00,2633.63,2536.78,2880.90,599.79,596.12,19.45,0000 0000 0000 0000 000000
2018-02-12 09:33:26,0.19,2.20,0.00,22.86,26.16,29.40,14.01,48.98,1016.65,2030.99,2630.52,2534.59,2878.46,600.38,596.72,19.50,0000 0000 0000 0000 000000
2018-02-12 09:38:28,0.20,2.21,0.00,22.87,26.17,29.41,14.02,49.04,1016.63,2030.99,2627.30,2532.38,2875.91,600.44,596.75,19.55,0000 0000 0000 0000 000000
2018-02-12 09:43:29,0.20,2.22,0.00,22.89,26.20,29.43,13.97,49.12,1016.62,2030.97,2624.25,2530.14,2873.31,599.93,596.19,19.60,0000 0000 0000 0000 000000
2018-02-12 09:48:30,0.18,2.23,0.00,22.89,26.20,29.44,13.94,49.10,1016.62,2030.98,2621.47,2528.09,2870.81,599.92,596.20,19.65,0000 0000 0000 0000 000000
2018-02-12 09:53:31,0.19,2.24,0.00,22.89,26.22,29.46,13.93,49.02,1016.62,2030.97,2618.61,2526.01,2868.34,599.96,596.07,19.70,0000 0000 0000 0000 000000
2018-02-12 09:58:32,0.18,2.25,0.00,22.90,26.23,29.47,14.04,49.02,1016.62,2030.96,2615.70,2523.89,2865.89,600.16,596.40,19.75,0000 0000 0000 0000 000000
2018-02-12 10:03:34,0.16,2.26,0.00,22.92,26.25,29.48,14.03,49.03,1016.62,2030.78,2612.69,2521.73,2863.34,600.45,596.66,19.80,0000 0000 0000 0000 000000
2018-02-12 10:08:35,0.19,2.27,0.00,22.92,26.26,29.49,13.91,48.95,1016.62,2030.72,2609.76,2519.66,2860.90,599.87,596.05,19.85,0000 0000 0000 0000 000000
2018-02-12 10:13:36,0.17,2.27,0.00,22.92,26.27,29.51,14.01,48.98,1016.62,2030.59,2606.98,2517.64,2858.39,600.04,596.29,19.90,0000 0000 0000 0000 000000
2018-02-12 10:18:37,0.14,2.28,0.00,22.92,26.28,29.52,13.97,49.02,1016.62,2030.18,2604.09,2515.61,2855.99,599.97,596.17,19.95,0000 0000 0000 0000 000000
2018-02-12 10:23:38,0.17,2.29,0.00,22.92,26.30,29.53,13.92,49.06,1016.62,2030.14,2601.30,2513.58,2853.57,599.58,595.78,20.00,0000 0000 0000 0000 000000
2018-02-12 10:28:39,0.17,2.30,0.00,22.93,26.31,29.55,14.03,49.09,1016.62,2030.07,2598.55,2511.68,2851.26,600.06,596.27,20.05,0000 0000 0000 0000 000000
2018-02-12 10:33:41,0.18,2.31,0.00,22.94,26.32,29.56,13.92,48.98,1016.62,2030.04,2595.87,2509.70,2848.96,599.68,595.84,20.10,0000 0000 0000 0000 000000
2018-02-12 10:38:42,0.16,2.32,0.00,22.94,26.33,29.58,13.97,48.87,1016.62,2030.01,2593.32,2507.82,2846.65,600.14,596.23,20.15,0000 0000 0000 0000 000000
2018-02-12 10:43:43,0.16,2.32,0.00,22.95,26.35,29.58,13.95,48.82,1016.62,2030.00,2590.65,2505.94,2844.37,600.28,596.45,20.20,0000 0000 0000 0000 000000
2018-02-12 10:48:44,0.16,2.33,0.00,22.96,26.35,29.59,13.89,48.82,1016.62,2030.00,2588.08,2504.10,2842.19,599.73,595.84,20.25,0000 0000 0000 0000 000000
2018-02-12 10:53:46,0.16,2.34,0.00,22.97,26.37,29.59,13.96,48.86,1016.62,2030.00,2585.67,2502.32,2840.07,599.81,595.74,20.30,0000 0000 0000 0000 000000
2018-02-12 10:58:47,0.15,2.35,0.00,22.98,26.37,29.61,13.99,48.92,1016.62,2030.00,2583.38,2500.68,2838.06,599.98,596.01,20.35,0000 0000 0000 0000 000000
2018-02-12 11:03:49,0.15,2.36,0.00,22.99,26.39,29.61,13.93,48.77,1016.62,2029.99,2581.15,2499.05,2836.02,599.61,595.75,20.40,0000 0000 0000 0000 000000
2018-02-12 11:08:50,0.15,2.37,0.00,22.99,26.40,29.62,14.01,48.94,1016.62,2029.98,2578.68,2497.28,2833.93,600.21,596.31,20.45,0000 0000 0000 0000 000000
2018-02-12 11:13:51,0.15,2.37,0.00,22.98,26.40,29.63,13.98,49.02,1016.62,2029.97,2576.28,2495.62,2831.86,600.10,596.25,20.50,0000 0000 0000 0000 000000
2018-02-12 11:18:53,0.15,2.38,0.00,22.99,26.41,29.64,14.01,48.92,1016.62,2029.87,2573.83,2493.92,2829.78,600.48,596.53,20.55,0000 0000 0000 0000 000000
2018-02-12 11:23:54,0.14,2.39,0.00,23.00,26.42,29.65,14.02,48.92,1016.62,2029.70,2571.38,2492.23,2827.71,600.15,596.19,20.60,0000 0000 0000 0000 000000
2018-02-12 11:28:55,0.12,2.39,0.00,23.02,26.42,29.67,13.96,48.88,1016.62,2029.28,2568.92,2490.37,2825.54,600.20,596.18,20.65,0000 0000 0000 0000 000000
2018-02-12 11:33:56,0.16,2.40,0.00,23.03,26.44,29.66,14.04,48.98,1016.62,2029.21,2566.34,2488.59,2823.40,600.13,596.21,20.71,0000 0000 0000 0000 000000
2018-02-12 11:38:57,0.16,2.41,0.00,23.02,26.45,29.68,13.97,49.07,1016.62,2029.14,2563.80,2486.73,2821.23,600.42,596.40,20.76,0000 0000 0000 0000 000000
2018-02-12 11:43:58,0.15,2.42,0.00,23.03,26.45,29.68,13.95,48.90,1016.62,2029.07,2561.30,2484.91,2819.08,600.08,596.04,20.81,0000 0000 0000 0000 000000
2018-02-12 11:48:59,0.14,2.43,0.00,23.04,26.46,29.68,13.99,48.93,1016.62,2029.03,2559.11,2483.25,2817.09,599.94,595.82,20.86,0000 0000 0000 0000 000000
2018-02-12 11:54:01,0.16,2.43,0.00,23.04,26.47,29.69,13.98,49.02,1016.62,2029.04,2556.61,2481.52,2815.25,600.02,595.93,20.91,0000 0000 0000 0000 000000
2018-02-12 11:59:02,0.14,2.44,0.00,23.05,26.47,29.69,13.94,48.89,1016.62,2029.05,2554.50,2479.91,2813.31,599.88,595.81,20.96,0000 0000 0000 0000 000000
2018-02-12 12:04:04,0.14,2.45,0.00,23.07,26.49,29.71,13.89,48.90,1016.61,2029.02,2552.29,2478.29,2811.33,600.00,595.90,21.01,0000 0000 0000 0000 000000
2018-02-12 12:09:05,0.14,2.46,0.00,23.09,26.50,29.72,14.06,48.98,1016.50,2029.01,2550.22,2476.72,2809.47,600.30,595.96,21.06,0000 0000 0000 0000 000000
2018-02-12 12:14:06,0.13,2.46,0.00,23.09,26.50,29.73,13.97,49.00,1016.23,2029.00,2547.97,2475.25,2807.70,600.16,595.67,21.11,0000 0000 0000 0000 000000
2018-02-12 12:19:08,0.12,2.47,0.00,23.10,26.52,29.75,14.03,49.04,1016.14,2029.00,2546.28,2473.85,2806.02,600.44,596.00,21.16,0000 0000 0000 0000 000000
2018-02-12 12:24:09,0.12,2.48,0.00,23.11,26.52,29.76,13.88,49.04,1016.13,2029.00,2544.51,2472.55,2804.39,599.71,595.29,21.21,0000 0000 0000 0000 000000
2018-02-12 12:29:10,0.11,2.48,0.00,23.13,26.52,29.76,13.97,48.94,1016.14,2029.00,2542.74,2471.30,2802.87,600.00,595.47,21.26,0000 0000 0000 0000 000000
2018-02-12 12:34:12,0.11,2.49,0.00,23.14,26.54,29.76,13.93,48.88,1016.14,2029.00,2541.03,2470.03,2801.42,599.90,595.37,21.31,0000 0000 0000 0000 000000
2018-02-12 12:39:13,0.12,2.50,0.00,23.14,26.55,29.78,14.00,48.93,1016.14,2028.99,2539.38,2468.77,2799.91,600.20,595.77,21.36,0000 0000 0000 0000 000000
2018-02-12 12:44:14,0.11,2.50,0.00,23.13,26.55,29.80,14.00,48.84,1016.14,2028.98,2537.63,2467.59,2798.50,600.29,595.81,21.41,0000 0000 0000 0000 000000
2018-02-12 12:49:16,0.11,2.51,0.00,23.12,26.57,29.79,14.02,48.96,1016.14,2028.98,2535.97,2466.39,2797.01,599.97,595.41,21.46,0000 0000 0000 0000 000000
2018-02-12 12:54:17,0.10,2.51,0.00,23.14,26.57,29.81,14.03,48.97,1016.15,2028.97,2534.37,2465.17,2795.57,600.37,595.78,21.51,0000 0000 0000 0000 000000